• MPC Preparation (Info)

  • MPEC 2016-O249: 2014 WR510

    The following Minor Planet Electronic Circular may be linked-to from your own Web pages, but must not otherwise be redistributed electronically.

    A form allowing access to any MPEC is at the bottom of this page.


    Read MPEC 2016-O248 Read MPEC 2016-O250


    M.P.E.C. 2016-O249                               Issued 2016 July 17, 19:44 UT
    
         The Minor Planet Electronic Circulars contain information on unusual
             minor planets and routine data on comets.  They are published
        on behalf of Division F of the International Astronomical Union by the
              Minor Planet Center, Smithsonian Astrophysical Observatory,
                              Cambridge, MA 02138, U.S.A.
    
                 Prepared using the Tamkin Foundation Computer Network
    
                                  MPC@CFA.HARVARD.EDU
                URL https://www.minorplanetcenter.net/    ISSN 1523-6714
    
                                      2014 WR510
    
    Observations:
         K14Wp0R  C2013 11 27.38500 05 36 55.018+14 19 37.73         21.7 wLEO249F51
         K14Wp0R  C2013 11 27.40027 05 36 54.914+14 19 37.55         22.1 wLEO249F51
         K14Wp0R  C2013 11 27.41561 05 36 54.817+14 19 37.43         22.2 wLEO249F51
         K14Wp0R  C2014 02 20.28564 05 29 12.658+14 20 32.85         22.5 wLEO249F51
         K14Wp0R  C2014 02 20.29717 05 29 12.626+14 20 32.96         22.1 wLEO249F51
         K14Wp0R  C2014 02 20.30860 05 29 12.614+14 20 33.03         22.2 wLEO249F51
         K14Wp0R  C2014 02 20.32006 05 29 12.602+14 20 33.44         22.2 wLEO249F51
         K14Wp0R* C2014 11 28.53703 05 47 46.782+14 06 04.95         21.9 wLEO249F51
         K14Wp0R  C2014 11 28.55125 05 47 46.672+14 06 04.70         22.1 wLEO249F51
         K14Wp0R  C2014 11 28.56541 05 47 46.583+14 06 04.41         22.1 wLEO249F51
         K14Wp0R  C2014 11 28.57957 05 47 46.486+14 06 04.41         21.9 wLEO249F51
         K14Wp0R  C2015 01 17.24879 05 42 14.832+14 03 00.19         22.1 wLEO249F51
         K14Wp0R  C2015 01 17.26192 05 42 14.744+14 03 00.27         22.2 wLEO249F51
         K14Wp0R  C2015 01 17.27507 05 42 14.676+14 03 00.43         22.2 wLEO249F51
    
    Observer details:
    F51 Pan-STARRS 1, Haleakala.  Observers B. Gibson, T. Goggia, N. Primak,
        A. Schultz, M. Willman.  Measurers K. Chambers, S. Chastel, Y.-T. Chen,
        L. Denneau, H. Flewelling, M. Holman, M. Huber, R. Jedicke, M. Lackner,
        E. Lilly, H.-W. Lin, E. Magnier, M. Micheli, M. Payne, P. Veres,
        R. Wainscoat, C. Waters, R. Weryk.  1.8-m Ritchey-Chretien + CCD.
    
    Orbital elements:
    2014 WR510
    Epoch 2016 July 31.0 TT = JDT 2457600.5                 MPC
    M  10.51206              (2000.0)            P               Q
    n   0.00398762     Peri.  220.07165     +0.30850786     -0.94562960
    a  39.3846226      Node   212.34660     +0.91458358     +0.32464200
    e   0.2660828      Incl.   11.09848     +0.26145702     -0.01980470
    P 247              H    7.3           G   0.15           U   4
    Residuals in seconds of arc
    131127 F51  0.0   0.0     140220 F51  0.0   0.2-    141128 F51  0.1-  0.1+
    131127 F51  0.0   0.1+    140220 F51  0.1+  0.1+    150117 F51  0.1+  0.0
    131127 F51  0.0   0.1+    141128 F51  0.2+  0.1+    150117 F51  0.1-  0.0
    140220 F51  0.1+  0.1-    141128 F51  0.1-  0.0     150117 F51  0.0   0.1+
    140220 F51  0.1-  0.1-    141128 F51  0.0   0.1-
    
    Ephemeris:
    2014 WR510               a,e,i = 39.38, 0.27, 11                 q = 28.905
    Date    TT    R. A. (2000) Decl.     Delta      r     Elong.  Phase     V
    2016 06 17    06 00 37.3 +14 18 51  30.2177 29.2178    10.0     0.3    22.1
    ...
    2016 07 02    06 03 01.0 +14 17 55  30.2103 29.2214    13.2     0.5    22.1
    ...
    2016 07 10    06 04 16.2 +14 16 54  30.1817 29.2233    19.2     0.7    22.1
    ...
    2016 07 16    06 05 11.1 +14 15 56  30.1495 29.2247    24.1     0.8    22.2
    2016 07 17    06 05 20.1 +14 15 45  30.1432 29.2250    25.0     0.8    22.2
    2016 07 18    06 05 29.0 +14 15 34  30.1367 29.2252    25.8     0.9    22.2
    ...
    2016 07 24    06 06 21.4 +14 14 20  30.0926 29.2267    31.0     1.0    22.2
    ...
    2016 08 01    06 07 27.8 +14 12 27  30.0208 29.2286    38.1     1.2    22.2
    ...
    2016 08 16    06 09 18.3 +14 08 10  29.8497 29.2322    51.7     1.6    22.2
    
    A. U. Tomatic                (C) Copyright 2016 MPC           M.P.E.C. 2016-O249
    

    Read MPEC 2016-O248 Read MPEC 2016-O250


    MPEC number:

    Enter an MPEC number in one of the following forms:

    • 1997-B01 (the full form)
    • J97B01 (the packed version of the full form)
    • B01 (the abbreviated form)